This demonstration page uses our WeatherBlox Daily Observations layout. Learn more.

Left ArrowRight Arrow

36.17497, -115.13722

Hourly Observations for January 7, 2021

Temp ( °F °C ) Dew Point ( °F °C ) Humidity (%) Winds ( mph kmh ) Pressure ( in mb ) Visibility ( mi km ) Precip ( " mm )
12:53 am 00:53 Clear 44 6.7 20 -6.7 38 38 NW 7 11 30.18 1022 10 16 N/A
1:53 am 01:53 Clear 43 6.1 19 -7.2 38 38 N N/A 30.18 1022 10 16 N/A
2:53 am 02:53 Clear 44 6.7 19 -7.2 37 37 NW 8 13 30.19 1022 10 16 N/A
3:53 am 03:53 Clear 47 8.3 17 -8.3 30 30 NW 13 20 30.18 1022 10 16 N/A
4:53 am 04:53 Clear 44 6.7 17 -8.3 34 34 W 6 9 30.19 1022 10 16 N/A
5:53 am 05:53 Clear 42 5.6 16 -8.9 35 35 W 3 6 30.21 1023 10 16 N/A
6:53 am 06:53 Sunny 42 5.6 16 -8.9 35 35 WNW 6 9 30.22 1024 10 16 N/A
7:53 am 07:53 Sunny 44 6.7 17 -8.3 34 34 WNW 8 13 30.25 1024 10 16 N/A
8:53 am 08:53 Sunny 49 9.4 17 -8.3 28 28 W 3 6 30.26 1025 10 16 N/A
9:53 am 09:53 Sunny 52 11.1 18 -7.8 26 26 VRB 3 6 30.26 1025 10 16 N/A
10:53 am 10:53 Sunny 53 11.7 18 -7.8 25 25 SE 3 6 30.24 1024 10 16 N/A
11:53 am 11:53 Sunny 56 13.3 20 -6.7 24 24 E 3 6 30.20 1023 10 16 N/A
12:53 pm 12:53 Sunny 56 13.3 20 -6.7 24 24 N N/A 30.18 1022 10 16 N/A
1:53 pm 13:53 Sunny 57 13.9 19 -7.2 23 23 N N/A 30.16 1021 10 16 N/A
2:53 pm 14:53 Sunny 58 14.4 20 -6.7 23 23 N N/A 30.15 1021 10 16 N/A
3:53 pm 15:53 Sunny 57 13.9 20 -6.7 24 24 SE 3 6 30.14 1021 10 16 N/A
4:53 pm 16:53 Clear 55 12.8 19 -7.2 24 24 E 3 6 30.16 1021 10 16 N/A
5:53 pm 17:53 Clear 53 11.7 20 -6.7 27 27 N N/A 30.17 1022 10 16 N/A
6:53 pm 18:53 Clear 50 10 22 -5.6 33 33 WNW 5 7 30.18 1022 10 16 N/A
7:53 pm 19:53 Clear 50 10 22 -5.6 33 33 N N/A 30.19 1022 10 16 N/A
8:53 pm 20:53 Clear 46 7.8 22 -5.6 38 38 WNW 6 9 30.20 1023 10 16 N/A
9:53 pm 21:53 Clear 43 6.1 19 -7.2 38 38 W 7 11 30.19 1023 10 16 N/A
10:53 pm 22:53 Clear 44 6.7 17 -8.3 34 34 N N/A 30.20 1023 10 16 N/A
11:53 pm 23:53 Clear 42 5.6 17 -8.3 36 36 W 3 6 30.19 1023 10 16 N/A

Powered by AerisWeather